Location: Ida Center
(41.8662°N, 83.5713°W)
Time: 08:25:54
(UTC+00:00)

Feng Yun 1-1 Rocket - Pass Details

Date: 17 November 2019
Orbit: 829 x 934 km, 99.2° (Epoch: 07 December)

Event Time Altitude Azimuth Distance (km) Brightness Sun altitude
Rises 22:49:05 0° 161° (SSE) 3,472 7.4 -7.2°
Reaches altitude 10° 22:51:29 10° 160° (SSE) 2,521 6.7 -7.6°
Maximum altitude 22:57:05 81° 74° (ENE) 874 4.2 -8.6°
Drops below altitude 10° 23:02:35 10° 348° (NNW) 2,475 6.6 -9.6°
Sets 23:04:55 0° 347° (NNW) 3,403 7.3 -10.0°
